Location: �mondeville
(49.4591°N, 1.3431°W)
Time: 20:31:57
(UTC+00:00)

Cosmos 407 Rocket - Pass Details

Date: 22 October 2019
Orbit: 744 x 786 km, 74.1° (Epoch: 13 November)

Event Time Altitude Azimuth Distance (km) Brightness Sun altitude
Exits shadow 05:03:46 25° 260° (W) 1,464 4.4 -15.8°
Maximum altitude 05:05:51 35° 304° (NW) 1,190 4.1 -15.4°
Drops below altitude 10° 05:10:33 10° 10° (N) 2,270 6.1 -14.7°
Sets 05:13:07 0° 19° (NNE) 3,200 7.0 -14.3°
